     11   20 13.51  -12 20.8    1.714   1.811    78.9   32.9   10.1   +27.7  312.2

     12   20 12.33  -11 47.0    1.699   1.818    80.0   32.9   10.1   +28.7  312.5

     13   20 11.10  -11 12.6    1.684   1.824    81.2   32.9   10.1   +29.7  312.9

     14   20 09.82  -10 37.8    1.670   1.830    82.4   32.9   10.1   +30.7  313.3

     15   20 08.49  -10 02.4    1.655   1.837    83.5   32.9   10.1   +31.7  313.8

     16   20 07.11  -09 26.5    1.641   1.843    84.7   32.8   10.1   +32.7  314.2

     17   20 05.67  -08 50.0    1.627   1.849    85.9   32.8   10.1   +33.8  314.7

     18   20 04.18  -08 12.9    1.613   1.856    87.1   32.7   10.1   +34.8  315.2

     19   20 02.63  -07 35.3    1.599   1.863    88.3   32.6   10.0   +35.9  315.8

     20   20 01.02  -06 57.1    1.585   1.869    89.5   32.5   10.0   +37.0  3163

     21   19 59.36  -06 18.3    1.571   1.876    90.7   32.4   10.0   +38.1  316.9

     22   19 57.64  -05 39.0    1.558   1.883    92.0   32.2   10.0   +39.2  317.5

     23   19 55.85  -04 59.1    1.545   1.890    93.2   32.1   10.0   +40.3  318.2

     24   19 54.00  -04 18.6    1.532   1.897    94.4   31.9   10.0   +41.5  318.9

     25   19 52.09  -03 37.5    1.520   1.904    95.7   31.7   10.0   +42.6  319.6

     26   19 50.11  -02 55.9    1.507   1.911    96.9   31.5   10.0   +43.8  320.4

     27   19 48.06  -02 13.7    1.495   1.918    98.2   31.3   10.0   +45.0  321.3

     28   19 45.95  -01 31.0    1.484   1.925    99.4   31.1   10.0   +46.2  3222

     29   19 43.76  -00 47.7    1.473   1.932   100.7   30.8   10.0   +47.4  323.1

     30   19 41.51  -00 03.9    1.462   1.940   102.0   30.5   10.0   +48.6  324.2

May   1   19 39.19  +00 40.3    1.451   1.947   103.2   30.3   10.0   +49.8  325.3



NAKANO         **** Don't distribute anyone except personal use only ****

                (C) Copyright 2006 OAA/ComputingSection

write mail from CFAD0::NAKANO on 2006-03-15 03:07:19(JST).

 

◎C/2004 B1の軌道と予報位置です    [From YC 2506]



LINEAR彗星  C/2004 B1 (LINEAR)

  山本速報2439で紹介したとおり,この彗星が,この春,10等級に明るくなる

ことが期待される.2005年10月の眼視全光度観測が,豪州のサージェント(D. A.

 J. Seargent, Cowra)から10月21日に12.6等,22日に12.7等と報告されている.

その後の眼視光度は,11月24日に12.9等という報告があるが,それ以外の報告が

ない.一方,精測位置は2005年12月26日まで報告されている(cf. YC 2417, YC 

2439).

  OAA計算課では,2004年1月28日から最終観測まで380個の観測を使用して次の

軌道を計算した.平均残差は0".63.



             Epoch = 2006 Jan. 25.0 TT  。

   T = 2006 Feb. 7.88622 TT    ω = 327.89938              (1/a)org.= +0.000017

   e =   1.0013072             Ω = 272.80150   (2000.0)   (1/a)fut.= -0.000500

   q =   1.6019402 AU          i = 114.09650                         ( Q = 8 )



  彗星の観測は,2006年2月には,すでに南半球で行なえたはずであるが,彗星

が観測できたという報告はないもよう.まもなく,北半球でも,彗星の観測が可

能となる.このため,この彗星の動向を確かめて欲しい.なお,天文ガイド2006

年4月号に天文薄明開始時の地平高度図がある.



2006/        α  (2000) δ     △      r     Elong. Phase    m1  天文薄明開始時

 27h JST    h  m       。  ,       AU      AU      。      。      等     h。    A 。

Mar.  1   20 32.68  -30 23.1   2.269   1.629    39.4  22.7   10.4    -4.5  304.5

      6   20 32.51  -28 31.2   2.215   1.643    43.4  24.5   10.3    -1.1  305.0

     11   20 31.90  -26 36.1   2.156   1.659    47.7  26.3   10.3    +2.4  305.5

     16   20 30.79  -24 36.9   2.093   1.678    52.2  27.9   10.3    +6.0  306.1

     21   20 29.11  -22 32.2   2.025   1.699    56.9  29.4   10.3    +9.8  306.9

     26   20 26.76  -20 21.1   1.953   1.723    61.8  30.7   10.2   +13.7  307.8

     31   20 23.65  -18 01.9   1.879   1.748    66.9  31.7   10.2   +17.8  308.9

Apr.  5   20 19.65  -15 33.5   1.804   1.776    72.2  32.4   10.2   +22.1  310.2

     10   20 14.65  -12 54.1   1.729   1.805    77.8  32.8   10.1   +26.7  311.8

     15   20 08.49  -10 02.4   1.655   1.837    83.5  32.9   10.1   +31.7  313.8

     20   20 01.02  -06 57.1   1.585   1.869    89.5  32.5   10.0   +37.0  316.3

     25   19 52.09  -03 37.5   1.520   1.904    95.7  31.7   10.0   +42.6  319.6

     30   19 41.51  -00 03.9   1.462   1.940   102.0  30.5   10.0   +48.6  324.2

May   5   19 29.17  +03 41.8   1.413   1.977   108.3  29.0   10.0   +54.7  330.5

     10   19 14.99  +07 36.1   1.376   2.015   114.4  27.2   10.0   +60.7  340.0

     15   18 59.00  +11 32.9   1.353   2.054   120.0  25.2   10.0   +66.0  354.4

     20   18 41.33  +15 24.5   1.345   2.095   124.8  23.4   10.1   +69.3   15.6

     25   18 22.29  +19 02.1   1.354   2.136   128.4  21.8   10.1   +69.3   40.9

     30   18 02.33  +22 17.0   1.379   2.178   130.5  20.7   10.2   +65.9   62.9

June  4   17 42.06  +25 03.3   1.420   2.221   130.8  20.2   10.4   +60.4   78.4

                    m1 =  7.0 + 5 log △ +  7.5 log r            (φ= +35o.5)

NAKANO

         **** Don't distribute anyone except personal use only ****

                (C) Copyright 2006 OAA/ComputingSection

write mail from CFAD0::NAKANO on 2006-03-03 23:36:38(JST).

 

    C/2004 B1 (LINEAR)

Epoch 2006 Jan. 25.0 TT = JDT 2453760.5  

T 2006 Feb. 7.88622 TT                                  Nakano

q   1.6019402            (2000.0)            P               Q

z  -0.0008160      Peri.  327.89938     +0.25810461     -0.31946981

 +/-0.0000015      Node   272.80150     -0.57359403     -0.81008369

e   1.0013072      Incl.  114.09650     -0.77741360     +0.49163346

From 380 observations 2004 Jan. 28-2005 Dec. 26, mean residual 0".63.

   (1/a)org.= +0.000017, (1/a)fut.= -0.000500 (+/-0.000001), Q= 8.



NAKANO

         **** Don't distribute anyone except personal use only ****

                (C) Copyright 2006 OAA/ComputingSection

write mail from CFAD0::NAKANO on 2006-03-01 01:58:59(JST).

 



    C/2004 B1 (LINEAR)

Epoch 2006 Jan. 25.0 TT = JDT 2453760.5  

T 2006 Feb. 7.88600 TT                                  Nakano

q   1.6019354            (2000.0)            P               Q

z  -0.0008160      Peri.  327.89949     +0.25810432     -0.31947055

 +/-0.0000016      Node   272.80150     -0.57359557     -0.81008259

e   1.0013071      Incl.  114.09653     -0.77741256     +0.49163479

From 350 observations 2004 Jan. 28-2005 Nov. 19, mean residual 0".66.

   (1/a)org.= +0.000017, (1/a)fut.= -0.000500 (+/-0.000002), Q= 8.



NAKANO

         **** Don't distribute anyone except personal use only ****

                (C) Copyright 2005 OAA/ComputingSection

write mail from CFAD0::NAKANO on 2005-12-08 01:41:52(JST).

 



    C/2004 B1 (LINEAR)                                                    

Epoch 2006 Jan. 25.0 TT = JDT 2453760.5  

T 2006 Feb. 7.88501 TT                                  Nakano

q   1.6019113            (2000.0)            P               Q

z  -0.0008127      Peri.  327.90025     +0.25810600     -0.31947601

 +/-0.0000016      Node   272.80173     -0.57360575     -0.81007557

e   1.0013018      Incl.  114.09684     -0.77740449     +0.49164281

From 314 observations 2004 Jan. 28-2005 Oct. 17, mean residual 0".63.

   (1/a)org.= +0.000020, (1/a)fut.= -0.000497 (+/-0.000002), Q= 8.

Residuals in seconds of arc 



NAKANO

         **** Don't distribute anyone except personal use only ****

                (C) Copyright 2005 OAA/ComputingSection

write mail from CFAD0::NAKANO on 2005-11-03 23:34:28(JST).

 



    C/2004 B1 (LINEAR)                                                    

Epoch 2006 Jan. 25.0 TT = JDT 2453760.5  

T 2006 Feb. 7.88563 TT                                  Nakano

q   1.6019260            (2000.0)            P               Q

z  -0.0008168      Peri.  327.89994     +0.25812174     -0.31947985

 +/-0.0000104      Node   272.80225     -0.57360009     -0.81007996

e   1.0013085      Incl.  114.09760     -0.77740344     +0.49163307

From 185 observations 2004 Jan. 28-2005 Jan. 1, mean residual 0".56.

   (1/a)org.= +0.000016, (1/a)fut.= -0.000501 (+/-0.000010), Q= 6.

NAKANO

         **** Don't distribute anyone except personal use only ****

                (C) Copyright 2005 OAA/ComputingSection

write mail from CFAD0::NAKANO on 2005-01-04 01:58:32(JST).

 





◎C/2004 B1の軌道と予報位置です



  この彗星は,12月11日に土佐の下元繁男氏(16.5等),久万の中村彰正氏

(15.9等)らによって,観測されています.



    C/2004 B1 (LINEAR)                                                    

Epoch 2006 Jan. 25.0 TT = JDT 2453760.5  

T 2006 Feb. 7.89057 TT                                  Nakano

q   1.6019343            (2000.0)            P               Q

z  -0.0008102      Peri.  327.90028     +0.25812027     -0.31948130

 +/-0.0000115      Node   272.80227     -0.57360478     -0.81007668

e   1.0012980      Incl.  114.09761     -0.77740047     +0.49163754

From 178 observations 2004 Jan. 28-Dec. 18, mean residual 0".57.

   (1/a)org.= +0.000023, (1/a)fut.= -0.000494 (+/-0.000011), Q= 6.

 

Date/        TT  R.A.(2000) Decl.     Delta   r     Daily motion  Mag.  Moon Age

              h    h  m       。  ,                      ,  / PA 。  m1      。

2004 Dec. 20 14  05 01.99  -17 44.4   4.240  5.003    16.7 / 255  16.4   60  .69

          21 14  05 00.86  -17 48.8   4.236  4.994    16.6 / 255  16.4   53  .78

          22 14  04 59.74  -17 53.0   4.232  4.985    16.5 / 256  16.4   47  .86

          23 14  04 58.62  -17 57.1   4.229  4.976    16.5 / 256  16.4   44  .92

          24 14  04 57.49  -18 00.9   4.226  4.967    16.4 / 257  16.4   44  .96

          25 14  04 56.38  -18 04.6   4.223  4.958    16.3 / 257  16.3   46  .99

          26 14  04 55.26  -18 08.1   4.221  4.949    16.2 / 258  16.3   50 1.00

          27 14  04 54.15  -18 11.5   4.219  4.940    16.1 / 259  16.3   57  .99

          28 14  04 53.05  -18 14.6   4.217  4.931    16.0 / 259  16.3   64  .96

          29 14  04 51.94  -18 17.6   4.216  4.922    15.8 / 260  16.3   72  .92

          30 14  04 50.85  -18 20.4   4.214  4.913    15.7 / 260  16.3   81  .86

          31 14  04 49.76  -18 23.1   4.213  4.904    15.6 / 261  16.3   90  .79

2005 Jan.  1 14  04 48.68  -18 25.5   4.213  4.895    15.5 / 262  16.3   99  .71

           2 14  04 47.60  -18 27.8   4.212  4.886    15.3 / 262  16.3  108  .62

